FENGYUN 1C DEB

Satellite information

Favourite Embed

Satellite Type and Status

DEBRISIN ORBIT

Key statistics

Satellite FENGYUN 1C DEB at a glance.

Uptime

9660

Days in orbit

Revolutions

≈ 14.2

Per day

Orbit

SSO

Sun Synchronous Orbit

Inclination

99.4

Latest

Satellite identification and parameters

Extended collection of information and parameters for FENGYUN 1C DEB.

Object identification

Identified? True

Debris? True

Object name: FENGYUN 1C DEB

International designator: 1999-025QA

Object number (NORAD): 30073

Object ID (CCSDS): 30073

Country: PEOPLES REPUBLIC OF CHINA (PRC)

Current information (Y/N): Y

RCS size: SMALL

Orbital parameters

Period: 101.545 minutes

Inclination: 99.4068 deg

SMA: 7209.934 km

Apoapsis: 871.917 km

Periapsis: 791.681 km

RAAN: 262.5907 deg

Eccentricy: 0.00556426

Argument of periapsis: 69.6358 deg

Mean anomaly: 8.49 deg

Mean motion: 14.18096764 rev/day

Mean motion (dot): 0.00007027 rev/day2

B* drag term: 0.0033933123 1/REarth

Two-line elements (TLE)

Creation date: Oct. 20, 2025, 2:10 a.m.

Reference frame: TEME

Reference center: EARTH

Epoch: Oct. 19, 2025, 4:50 p.m. UTC

TLE line 0: 0 FENGYUN 1C DEB

TLE line 1: 1 30073U 99025QA 25292.70180618 .00007027 00000-0 33933-2 0 9998

TLE line 2: 2 30073 99.4068 262.5907 0055643 69.6358 8.4900 14.18096764961599

Live tracking on map

Real-time ground track for satellite FENGYUN 1C DEB.

In-orbit conjunctions

A list of the most updated potential collisions computed for object FENGYUN 1C DEB.

Target Orbit TCA Probability of collision Miss distance Type
COSMOS 1275 DEB LEO 2025-03-09 07:45:18 0.0002352134 131.0 (m) DEBRIS
COSMOS 252 DEB * LEO 2024-11-12 01:56:05 0.0002275506 780.0 (m) DEBRIS
METEOR 1-24 LEO 2024-10-15 22:52:45 0.0001069729 766.0 (m) PAYLOAD
METEOR 2-12 DEB LEO 2024-07-27 06:17:54 0.0001236959 72.0 (m) DEBRIS

Associated space launch

Chinese polar orbiting meteorological satellite

FENGYUN 1C DEB was lifted into orbit during the mission ‘Long March 4B | Feng Yun 1C’, on board a Long March 4B space rocket.

The launch took place on May 10, 1999, 1:33 a.m. from Launch Complex 7.

For more information about the launch, click the button.

Launch to space Long March 4B | Feng Yun 1C
Long March 4B | Feng Yun 1C

Agency: N/A

Status: Launch Successful

Launch date: May 10, 1999, 1:33 a.m. UTC

Rocket: Long March 4B

Launch pad: Launch Complex 7

Location: Taiyuan Satellite Launch Center, People's Republic of China

...

Latest news about this satellite

There are no fresh news available about this satellite. Check back as we update our databases every day.


Newsletter sign-up

Weekly statistics, charts and insights to help you stay on top of the space industry.